Location: *
(43.9905°S, 176.4941°W)
Time: 17:11:11
(UTC+00:00)

H-2A R/B - Pass Details

Date: 08 December 2019
Orbit: 733 x 837 km, 98.2° (Epoch: 19 January)

Event Time Altitude Azimuth Distance (km) Brightness Sun altitude
Rises 08:12:32 0° 164° (SSE) 3,420 5.8 -8.5°
Reaches altitude 10° 08:14:58 10° 160° (SSE) 2,484 5.0 -8.8°
Maximum altitude 08:20:26 60° 79° (E) 964 2.3 -9.5°
Drops below altitude 10° 08:25:49 10° 359° (N) 2,445 4.2 -10.2°
Enters shadow 08:28:08 - 355° (N) 3,344 4.9 -10.4°
